Location: Eesergroen
(52.8893°N, 6.7789°E)
Time: 00:12:03
(UTC+00:00)

Daily predictions for brighter satellites

Satellite Brightness Start Highest point End
(mag) Time Altitude Azimuth Time Altitude Azimuth Time Altitude Azimuth
OPS 8737 3.9 00:01:01 10° NW 00:04:03 70° SW 00:05:59 20° SE
Cosmos 1328 3.5 00:02:26 25° SSW 00:04:27 87° W 00:08:05 10° N
Cosmos 2082 Rocket 4.0 00:02:15 10° NNW 00:07:22 32° NE 00:12:29 10° ESE
Cosmos 2278 Rocket 4.0 00:11:27 10° SE 00:15:19 19° E 00:19:12 10° ENE
Cosmos 1300 Rocket 4.5 00:13:51 10° NNW 00:17:54 36° W 00:20:33 18° SSW
SJ 16-02 1.3 00:15:31 20° SSW 00:18:30 83° WNW 00:22:51 10° NNE
USA 229 DEB 4.1 00:11:23 10° NW 00:18:41 84° NE 00:26:45 10° SE
USA 229 4.1 00:11:30 10° NW 00:18:47 83° NE 00:26:51 10° SE
CZ-2C R/B 2.7 00:14:32 14° SSE 00:19:03 81° ENE 00:24:26 10° NNW
Cosmos 2151 Rocket 4.1 00:16:22 10° N 00:20:44 57° ENE 00:24:39 13° SSE
Cosmos 1943 Rocket 4.0 00:18:09 10° SE 00:21:51 19° E 00:25:34 10° ENE
Cosmos 371 Rocket 3.6 00:19:30 19° S 00:22:46 56° ESE 00:27:31 10° NNE
NOSS 2-1 (C) 4.4 00:19:53 10° WNW 00:22:59 27° SW 00:24:43 20° SSW
Okean 2 Rocket 3.8 00:19:16 10° N 00:23:40 51° ENE 00:27:50 11° SSE
USA 307 2.6 00:20:42 13° WSW 00:24:04 66° SSE 00:28:00 10° ENE
NOSS 2-1 (E) 4.4 00:23:30 10° WNW 00:26:40 28° SW 00:28:37 20° SSW
Cosmos 676 Rocket 4.4 00:24:48 14° SW 00:29:13 61° WNW 00:34:26 10° NNE
Cosmos 1741 Rocket 4.2 00:26:35 18° S 00:30:25 63° ESE 00:35:41 10° NNE
Okean 1 Rocket 3.9 00:29:27 10° N 00:33:48 50° ENE 00:38:07 10° SSE
Cosmos 375 4.4 00:30:42 10° NW 00:35:27 74° SW 00:39:20 10° SE
Cosmos 1025 Rocket 4.2 00:37:03 12° SSE 00:40:36 34° E 00:44:28 10° NNE
Cosmos 1844 Rocket 3.9 00:37:39 10° WSW 00:42:55 38° NW 00:48:14 10° NNE
Nadezhda 4 Rocket 4.3 00:38:07 14° S 00:43:28 64° E 00:49:39 10° NNE
Cosmos 1378 Rocket 3.6 00:40:25 18° S 00:43:39 75° E 00:48:03 10° NNE
USA 234 3.3 00:38:24 10° ENE 00:44:54 63° SE 00:51:10 11° SW
Cosmos 1340 Rocket 2.6 00:45:08 10° NNW 00:49:00 86° WSW 00:52:07 15° S
In-Cosmos 22 Rocket 4.5 00:44:33 15° S 00:49:14 67° E 00:54:59 10° NNE
ADEOS II 4.4 00:49:56 10° NE 00:52:54 15° E 00:55:53 10° ESE
USA 59 Rocket 1.7 00:50:54 10° W 00:53:20 16° WSW 00:54:17 15° SW
Cosmos 158 Rocket 4.0 00:48:32 10° NNW 00:53:42 80° ENE 00:58:41 10° SSE
Cosmos 1606 4.0 00:52:10 10° NW 00:54:24 19° W 00:55:43 15° WSW
ATLAS 3B R/B 3.1 00:53:59 10° NW 01:01:44 60° SW 01:09:10 10° SSE
Nimbus 7 Rocket 4.5 00:57:14 10° NNE 01:03:11 85° ESE 01:08:22 14° SSW
Cosmos 304 Rocket 3.9 01:00:52 15° SW 01:04:44 71° WNW 01:09:31 10° NNE
MOZ.5/SAFIR/RUBIN 5/SL-8 4.0 01:03:53 10° SSE 01:08:27 72° ENE 01:13:02 10° NNW
SOZ 4.1 01:06:58 13° WSW 01:08:44 63° SSE 01:11:36 10° E
H-2A R/B 3.3 01:06:39 17° SSW 01:08:48 29° W 01:12:01 10° NW
Cosmos 2026 Rocket 4.4 01:06:41 10° S 01:12:51 60° E 01:18:58 10° NNE
H-2A R/B 3.1 01:09:33 10° NNE 01:13:15 35° E 01:16:56 10° SSE
Cosmos 1869 3.6 01:12:17 10° NNW 01:15:51 44° W 01:18:36 15° SSW
Cosmos 1814 Rocket 4.4 01:11:17 10° NW 01:16:22 46° WSW 01:21:15 11° S
IDEFIX/ARIANE 42P 2.9 01:11:58 10° NNE 01:17:13 65° ESE 01:22:10 11° S
Cosmos 1850 Rocket 4.3 01:12:44 13° SW 01:17:18 60° WNW 01:22:26 10° NNE
USA 305 0.7 01:14:46 10° WNW 01:17:21 76° SSW 01:19:00 10° ESE
SL-24 R/B - RUBIN 2 4.3 01:13:41 10° NW 01:18:13 36° WSW 01:22:19 10° S
Cosmos 1455 Rocket 3.4 01:15:41 10° N 01:20:03 67° ENE 01:24:21 10° SSE
ATLAS 2AS CENTAUR R/B 3.0 01:13:15 10° WSW 01:20:21 70° NW 01:27:14 10° NE
Cosmos 1833 Rocket 3.5 01:16:22 10° NW 01:21:19 32° WSW 01:25:45 12° SSW
Cosmos 2221 Rocket 3.6 01:21:46 14° SSW 01:25:33 78° WNW 01:30:00 10° N
Cosmos 1812 2.3 01:24:01 10° N 01:27:13 76° ENE 01:30:23 10° SSE
MSX 4.0 01:22:57 10° NNE 01:28:44 73° ESE 01:34:26 10° S
NPP 3.8 01:27:12 10° NNE 01:32:38 73° ESE 01:38:01 10° S
CZ-2C R/B 3.8 01:28:25 10° N 01:33:42 47° WNW 01:38:34 11° SW
Sich 1 Rocket 4.2 01:31:32 10° NNW 01:35:42 40° W 01:39:38 11° SSW
Meteor 1-11 4.3 01:31:27 11° SSW 01:37:02 89° W 01:42:55 10° NNE
Cosmos 2228 4.0 01:37:12 10° N 01:41:12 46° ENE 01:45:11 10° SSE
SL-4 R/B 1.8 01:37:36 10° W 01:41:35 69° S 01:45:21 10° ESE
Cosmos 1674 Rocket 4.3 01:38:17 12° SW 01:42:02 41° WNW 01:46:10 10° N
Cosmos 332 Rocket 3.8 01:37:42 12° SSW 01:42:15 88° ESE 01:47:06 10° NNE
COSMOS 2406 3.5 01:36:37 10° NNW 01:42:25 75° ENE 01:48:09 10° SE
Cosmos 968 Rocket 4.5 01:38:22 10° WSW 01:43:14 39° NW 01:48:11 10° NNE
Resurs 1-4 Rocket 2.7 01:43:05 10° NNE 01:48:17 55° E 01:53:27 10° S
Cosmos 1666 3.6 01:50:44 10° SE 01:51:41 13° E 01:52:38 10° ENE
Cosmos 2082 Rocket 2.2 01:46:14 10° NW 01:51:54 67° WSW 01:57:33 10° SSE
USA 307 2.8 01:50:16 10° W 01:54:14 75° N 01:58:04 10° E
Meteor 1-27 4.5 01:49:28 10° NNW 01:55:20 80° ENE 02:01:11 10° SSE
SJ 16-02 3.6 01:54:41 10° W 01:57:23 16° NW 02:00:05 10° N
Cosmos 2278 Rocket 2.3 01:52:58 10° SSW 01:58:39 89° NW 02:04:22 10° NNE
Cosmos 2098 Rocket 2.6 01:55:16 10° N 01:59:17 88° ENE 02:02:38 10° S
CZ-2C R/B 4.2 01:56:21 10° SW 01:59:59 19° W 02:03:40 10° NW
Timation 2 Rocket 4.2 01:54:04 10° SW 02:00:00 63° NW 02:05:59 10° NNE
CZ-2D R/B 2.5 01:57:13 10° NNE 02:02:38 66° ESE 02:07:57 10° S
Cosmos 1544 Rocket 4.1 01:59:43 10° N 02:04:01 61° ENE 02:08:15 10° SSE
Cosmos 1943 Rocket 2.2 01:59:20 10° SSW 02:04:49 88° WNW 02:10:24 10° NNE
ALOS 3.1 02:00:36 10° NNE 02:05:02 47° E 02:09:26 10° S
SL-16 R/B 3.3 02:00:30 10° SE 02:06:34 59° ENE 02:12:42 10° NNW
Cosmos 1025 Rocket 4.2 02:14:20 10° SW 02:18:06 30° WNW 02:21:52 10° N
Cosmos 1553 Rocket 4.0 02:15:44 10° NNW 02:21:45 67° W 02:27:47 10° S
S3M 4.4 02:17:10 10° N 02:23:34 72° ENE 02:29:57 10° SSE
